Powrót do katalogu

COSMOS 2251 DEB

AktywnyLEO
NORAD 35611·DEBRIS·🇷🇺 Russia

Wystrzelony Jun 16, 1993 z Plesetsk Cosmodrome

Loading…

Następne Przeloty (najbliższe 24 godziny)

TLE

ŚwieżeSource: Space-Track

Epoka: Sep 14, 2026, 06:23 UTC

1 35611U 93036ANE 26257.26665459  .00007722  00000-0  10308-2 0  9994
2 35611  74.0206 358.8168 0020692   3.9405 356.1930 14.79569637913575

Śledź COSMOS 2251 DEB w czasie rzeczywistym z AllMySat

Download on the App Store